Regional Weather Roundup
Issued by NWS Charleston, WV

Home | Current Version | Previous Version | Graphics & Text | Print | Product List | Glossary On
Versions: 1 2 3 4 5 6 7 8 9 10 11 12 13 14 15 16 17 18 19 20 21 22 23 24 25 26 27 28 29 30 31 32 33 34 35 36 37 38 39 40 41 42 43 44 45 46 47 48 49 50
223
ASUS41 KRLX 291310
RWRRLX
West Virginia Regional Weather Roundup
National Weather Service Charleston WV
900 AM EDT FRI JUL 29 2016

Note: "fair" indicates few or no clouds below 12,000 feet with no
significant weather and/or obstructions to visibility.

WVZ003-291400-
Northern Panhandle of West Virginia

CITY           SKY/WX    TMP DP  RH WIND       PRES   REMARKS
WHEELING       FOG       70  67  90 SW3       29.98R VSB 1
$$

WVZ009-291400-
Northwest West Virginia

CITY           SKY/WX    TMP DP  RH WIND       PRES   REMARKS
PARKERSBURG    CLOUDY    71  69  93 CALM      30.00R FOG
$$

WVZ006-291400-
Western West Virginia

CITY           SKY/WX    TMP DP  RH WIND       PRES   REMARKS
HUNTINGTON     CLOUDY    72  71  97 VRB3      29.98R FOG
$$

WVZ015-291400-
West Central West Virginia

CITY           SKY/WX    TMP DP  RH WIND       PRES   REMARKS
CHARLESTON     PTSUNNY   73  69  87 SW5       29.98R FOG
$$

WVZ022-031-291400-
North Central West Virginia

CITY           SKY/WX    TMP DP  RH WIND       PRES   REMARKS
CLARKSBURG     CLOUDY    70  68  93 W3        29.99R
MORGANTOWN     PTSUNNY   72  68  87 CALM      29.99R
$$

WVZ025-035-042-045-291400-
Southern West Virginia

CITY           SKY/WX    TMP DP  RH WIND       PRES   REMARKS
BECKLEY        CLOUDY    69  65  86 W8        30.06R
LOGAN          CLOUDY    70  70 100 CALM      30.01S FOG
BLUEFIELD      CLOUDY    66  64  93 W6        30.08S
LEWISBURG      CLOUDY    68  65  88 W7        30.04R
$$

WVZ047-291400-
Northern Mountains of West Virginia

CITY           SKY/WX    TMP DP  RH WIND       PRES   REMARKS
ELKINS         CLOUDY    70  64  81 NW5       30.02S
$$

WVZ052-291400-
Eastern Panhandle of West Virginia

CITY           SKY/WX    TMP DP  RH WIND       PRES   REMARKS
MARTINSBURG    PTSUNNY   74  68  81 NW10      29.91S
PETERSBURG     CLOUDY    71  69  94 CALM      29.96S FOG
$$




USA.gov is the U.S. government's official web portal to all federal, state and local government web resources and services.